Regional Weather Roundup
Issued by NWS

Home | Current Version | Previous Version | Text Only | Print | Product List | Glossary On
Versions: 1 2 3 4 5 6 7 8 9 10 11 12 13 14 15 16 17 18 19 20 21 22 23 24 25 26 27 28 29 30 31 32 33 34 35 36 37 38 39 40 41 42 43 44 45 46 47 48 49 50
000
ASUS42 KFFC 221510
RWRGA
WEATHER ROUNDUP FOR GEORGIA
NATIONAL WEATHER SERVICE PEACHTREE CITY GA
1100 AM EDT TUE AUG 22 2017

NOTE: "FAIR" INDICATES FEW OR NO CLOUDS BELOW 12,000 FEET WITH NO
SIGNIFICANT WEATHER AND/OR OBSTRUCTIONS TO VISIBILITY.

* = USE WITH CAUTION. THE STATIONS MARKED WITH AN ASTERISK MAY NOT
REPORT WEATHER SUCH AS PRECIPITATION, FOG, OR THUNDER AND ARE NOT
QUALITY CONTROLLED BY NWS.

THE REMARK "TC" DENOTES TEMPERATURE READING IN DEGREES CELSIUS.

GAZ001>058-221600-
NORTH GEORGIA

CITY           SKY/WX    TMP DP  RH WIND       PRES   REMARKS
ATLANTA        MOSUNNY   85  73  67 W3        30.15S HX  91
ATHENS         SUNNY     85  75  72 VRB3      30.15S HX  93
CHAMBLEE       SUNNY     84  72  67 CALM      30.15S
PEACHTREE CITY MOSUNNY   85  75  72 W3        30.16R HX  93
ROME           SUNNY     85  75  72 SW5       30.12F HX  93
WEST ATLANTA   SUNNY     85  76  74 NE3       30.14S HX  94
GAINESVILLE    SUNNY     83  72  69 CALM      30.18S
CARTERSVILLE   SUNNY     84  74  71 VRB5      30.14S HX  91


CITY           SKY/WX    TMP DP  RH WIND       PRES   REMARKS
LAWRENCEVILLE* MOSUNNY   82  73  74 CALM      30.17S
MARIETTA       MOSUNNY   85  72  65 SW5       30.15S HX  90
KENNESAW*      SUNNY     84  73  69 VRB5      30.16S HX  90
CANTON*        SUNNY     82  73  74 CALM      30.17F
$$

GAZ059>098-102>109-221600-
CENTRAL GEORGIA

CITY           SKY/WX    TMP DP  RH WIND       PRES   REMARKS
AUGUSTA-BUSH   PTSUNNY   86  75  69 E3        30.13S HX  95
AUGUSTA-DANIEL PTSUNNY   86  72  62 S5        30.15S HX  92
COLUMBUS       SUNNY     87  74  64 SW5       30.13S HX  95
MACON          CLOUDY    84  74  71 S5        30.14R HX  91
ROBINS AFB     MOSUNNY   86  75  70 SW5       30.13S HX  95


CITY           SKY/WX    TMP DP  RH WIND       PRES   REMARKS
LAGRANGE*      MOSUNNY   88  77  69 CALM      30.15S HX 100
SYLVANIA*      PTSUNNY   82  76  82 CALM      30.15S
MILLEDGEVILLE* SUNNY     86  77  74 CALM      30.14S HX  97
$$

GAZ099>101-110>166-221600-
SOUTH GEORGIA

CITY           SKY/WX    TMP DP  RH WIND       PRES   REMARKS
SAVANNAH       PTSUNNY   83  76  79 VRB6      30.14R HX  91
VALDOSTA       MOSUNNY   85  76  74 VRB6      30.14R HX  94
ALMA           LGT RAIN  83  75  77 SW5       30.14R HX  90
ST SIMONS      PTSUNNY   83  77  82 CALM      30.13R HX  92
FT STEWART     PTSUNNY   84  73  70 NW3       30.11S HX  91
ALBANY         PTSUNNY   87  76  69 SE5       30.15R HX  97
HUNTER AFB     LGT RAIN  84  73  70 W5        30.11S HX  91
MOODY AFB      SUNNY     85  74  69 CALM      30.13R HX  93
BRUNSWICK      MOSUNNY   81  73  78 CALM      30.14S


CITY           SKY/WX    TMP DP  RH WIND       PRES   REMARKS
BAINBRIDGE*    MOSUNNY   88  81  79 NE3       30.13S HX 105
MOULTRIE*      MOSUNNY   82  75  78 S3        30.15S
VIDALIA*       MOSUNNY   86  73  66 CALM      30.14F HX  93
WAYCROSS*      PTSUNNY   85  72  66 SW5       30.14R HX  90
DOUGLAS*       SUNNY     81  73  78 S3        30.15S
$$




USA.gov is the U.S. government's official web portal to all federal, state and local government web resources and services.